Location: Asheville, NC
(35.6000°N, 82.5500°W)
Time: 12:12:45
(UTC-04:00)

STARS - Pass Details

Date: 10 January 2018
Orbit: 626 x 640 km, 98.3° (Epoch: 23 June)

Event Time Altitude Azimuth Distance (km) Brightness Sun altitude
Rises 04:29:06 0° 117° (ESE) 2,899 ? -38.2°
Reaches altitude 10° 04:32:45 10° 84° (E) 1,997 ? -37.5°
Maximum altitude 04:34:11 12° 64° (ENE) 1,900 ? -37.2°
Enters shadow 04:35:03 11° 53° (NE) 1,937 ? -37.0°
